Terminal Aerodrome Forecast
Issued by NWS Duluth, MN

Home | Current Version | Previous Version | Text Only | Print | Product List | Glossary On
Versions: 1 2 3 4 5 6 7 8 9 10 11 12 13 14 15 16 17 18 19
000
FTUS43 KDLH 201729
TAFDLH
TAF
KDLH 201729Z 2018/2118 17008KT P6SM SCT018
     FM202100 13008KT P6SM SCT070
     FM210600 16005KT P6SM VCTS SCT050CB SCT100
     FM211000 17005KT 4SM -SHRA VCTS BKN025CB OVC040
     FM211400 19006KT P6SM VCSH SCT025 BKN150=

USA.gov is the U.S. government's official web portal to all federal, state and local government web resources and services.